Starlink 5352

operational
NORAD ID: 56426 Int'l Des: 2023-061 Owner: SPXS Country: US Constellation: starlink
LEOCIRCULAR

Über Starlink 5352

Beschreibung wird geladen...

Live-Position

3D-Globus wird geladen...

Nächste Überflüge

Höhenverlauf

Altitude vs Time

uPlot chart will show altitude changes over time

Zweizeiliger Elementsatz

1 56426U 23061BE 25259.09247577 .00001132 00000-0 98860-4 0 9991
2 56426 43.0049 40.7565 0001503 271.0384 89.0286 15.02536640130780
Epoch: 16. Sept. 2025 • Age: 14 hours

Aktueller Status

Höhe 565.4 km
Geschwindigkeit 7.58 km/s
Subsatellitenpunkt -27.40°S, 122.25°E
Startdatum 4. Mai 2023
Alter 2.3 years
Typ internet

Technische Details

Klassifizierung Payload
Masse 305.00 kg
Trockenmasse 290.00 kg
Gesamtmasse 305.00 kg
Länge 0.20 m
Durchmesser 2.80 m
Spannweite 9.00 m
Form Box + pan
Hersteller SPXS
Bus-Typ Starlink
Phasenstatus In Orbit
Besitzer/Staat SPXS/US

Große Konstellationen

Loading constellations...